User: anonymous   Login
Location: NJAA Observatory
(40.6819°N, 74.8979°W)
Time: 06:44:09
(UTC-04:00)
Language:

ATLAS CENTAUR R/B - Orbit

View from above orbital plane
View from above orbital plane
View from above satellite
View from above satellite

Ground track
Ground track

The orbit data is extracted from the following two-line orbital elements,

1 28385U 04034B   18068.70275194 0.00023000  00000-0  28889-3 0    01
2 28385  57.3001 269.1009 3412824 289.5320  70.4679  8.67644447    07
Epoch (UTC): 09 March 2018 16:51:57
Eccentricity: 0.3412824
inclination: 57.3001°
perigee height: 211 km
apogee height: 7040 km
right ascension of ascending node: 269.1009°
argument of perigee: 289.5320°
revolutions per day: 8.67644447
mean anomaly at epoch: 70.4679°
orbit number at epoch: 0

The dashed part of the orbit path shows where the satellite is in the earth's shadow,  

DLR